Coatesville, PA

5:20 AM EST on December 09, 2019 (GMT -0500)
Chester County Carlson

Weather History for KMQS - November, 2019

Change the Weather History Date:

Thursday, November 21, 2019

  Actual Average (KILG) Record (KILG)
Temperature  
Mean Temperature 40 °F -  
Max Temperature 50 °F 51 °F 75 °F (1900)
Min Temperature 30 °F 34 °F 19 °F (1984)
Degree Days  
Heating Degree Days 25    
Moisture  
Dew Point 32 °F    
Average Humidity 66    
Maximum Humidity 93    
Minimum Humidity 50    
Precipitation  
Precipitation 0.00 in - - ()
Sea Level Pressure  
Sea Level Pressure 30.16 in    
Wind  
Wind Speed 7 mph ()    
Max Wind Speed 15 mph    
Max Gust Speed 14 mph    
Visibility 9.9 miles    
Events Rain    
Averages and records for this station are not official NWS values.
T = Trace of Precipitation, MM = Missing Value Source: Averaged Metar Reports

Daily Weather History Graph

Daily Weather History Graph

Search for Another Location

Airport or City:

Astronomy

Nov. 21, 2019 Rise Set
Actual Time 6:55 AM EST 4:43 PM EST
Civil Twilight 6:25 AM EST 5:12 PM EST
Nautical Twilight 5:52 AM EST 5:45 PM EST
Astronomical Twilight 5:20 AM EST 6:17 PM EST
Moon 12:48 AM EST (11/21) 2:10 PM EST (11/21)
Length of Visible Light 10h 46m
Length of Day
9h 48m
Waning Crescent, 30% of the Moon is Illuminated
Nov 21
Waning Crescent
Nov 26
New
Dec 4
First Quarter
Dec 12
Full
Dec 18
Last Quarter

Hourly Weather History & Observations

Time (EST) Temp. Windchill Dew Point Humidity Pressure Visibility Wind Dir Wind Speed Gust Speed Precip Events Conditions
12:15 AM 41.0 °F 33.9 °F 30.2 °F 65% 30.16 in 10.0 mi NW 12.7 mph - N/A   Clear
12:35 AM 41.0 °F 33.1 °F 30.2 °F 65% 30.16 in 10.0 mi NW 15.0 mph - N/A   Clear
12:55 AM 41.0 °F 33.1 °F 30.2 °F 65% 30.16 in 10.0 mi NW 15.0 mph - N/A   Clear
1:15 AM 39.2 °F 32.0 °F 30.2 °F 70% 30.17 in 10.0 mi NW 11.5 mph - N/A   Clear
1:35 AM 39.2 °F 33.6 °F 30.2 °F 70% 30.18 in 10.0 mi WNW 8.1 mph - N/A   Clear
1:55 AM 39.2 °F 32.0 °F 30.2 °F 70% 30.18 in 10.0 mi NW 11.5 mph - N/A   Clear
2:15 AM 37.4 °F 32.8 °F 30.2 °F 75% 30.19 in 10.0 mi WNW 5.8 mph - N/A   Clear
2:35 AM 37.4 °F 32.1 °F 30.2 °F 75% 30.19 in 10.0 mi WNW 6.9 mph - N/A   Mostly Cloudy
2:55 AM 35.6 °F 29.2 °F 30.2 °F 81% 30.19 in 10.0 mi WNW 8.1 mph - N/A   Mostly Cloudy
3:15 AM 37.4 °F 31.4 °F 30.2 °F 75% 30.19 in 10.0 mi West 8.1 mph - N/A   Partly Cloudy
3:55 AM 37.4 °F 29.8 °F 30.2 °F 75% 30.19 in 10.0 mi NW 11.5 mph - N/A   Mostly Cloudy
4:15 AM 37.4 °F 30.3 °F 30.2 °F 75% 30.20 in 10.0 mi NW 10.4 mph - N/A   Partly Cloudy
4:35 AM 37.4 °F 30.8 °F 30.2 °F 75% 30.20 in 10.0 mi NW 9.2 mph - N/A   Clear
4:55 AM 35.6 °F 29.9 °F 30.2 °F 81% 30.21 in 10.0 mi West 6.9 mph - N/A   Clear
5:15 AM 35.6 °F 28.0 °F 30.2 °F 81% 30.21 in 10.0 mi NW 10.4 mph - N/A   Clear
5:35 AM 35.6 °F 28.0 °F 30.2 °F 81% 30.21 in 10.0 mi NW 10.4 mph - N/A   Clear
5:55 AM 33.8 °F 27.0 °F 28.4 °F 81% 30.22 in 10.0 mi WNW 8.1 mph - N/A   Clear
6:15 AM 33.8 °F 28.6 °F 28.4 °F 81% 30.22 in 10.0 mi West 5.8 mph - N/A   Clear
6:35 AM 33.8 °F 29.6 °F 28.4 °F 81% 30.22 in 10.0 mi West 4.6 mph - N/A   Clear
6:55 AM 33.8 °F 28.6 °F 28.4 °F 81% 30.23 in 10.0 mi West 5.8 mph - N/A   Clear
7:15 AM 30.2 °F 22.6 °F 28.4 °F 93% 30.23 in 9.0 mi West 8.1 mph - N/A   Clear
7:35 AM 32.0 °F 24.8 °F 28.4 °F 87% 30.23 in 9.0 mi West 8.1 mph - N/A   Clear
7:55 AM 33.8 °F 27.7 °F 30.2 °F 87% 30.23 in 8.0 mi WNW 6.9 mph - N/A   Clear
8:15 AM 37.4 °F 32.1 °F 32.0 °F 81% 30.24 in 9.0 mi West 6.9 mph - N/A   Clear
8:35 AM 39.2 °F 35.0 °F 32.0 °F 75% 30.24 in 9.0 mi West 5.8 mph - N/A   Clear
8:55 AM 41.0 °F 36.4 °F 32.0 °F 70% 30.24 in 10.0 mi West 6.9 mph - N/A   Clear
9:15 AM 41.0 °F 35.2 °F 32.0 °F 70% 30.24 in 10.0 mi NW 9.2 mph - N/A   Clear
9:35 AM 42.8 °F 37.5 °F 32.0 °F 66% 30.24 in 9.0 mi NW 9.2 mph - N/A   Clear
9:55 AM 42.8 °F 38.0 °F 32.0 °F 66% 30.24 in 10.0 mi NW 8.1 mph - N/A   Clear
10:15 AM 44.6 °F 42.2 °F 32.0 °F 61% 30.24 in 10.0 mi WNW 4.6 mph - N/A   Clear
10:35 AM 46.4 °F 43.5 °F 33.8 °F 62% 30.24 in 10.0 mi Variable 5.8 mph - N/A   Clear
10:55 AM 46.4 °F - 32.0 °F 57% 30.23 in 10.0 mi Calm Calm - N/A   Clear
11:15 AM 46.4 °F 42.9 °F 33.8 °F 62% 30.23 in 10.0 mi West 6.9 mph - N/A   Clear
11:35 AM 48.2 °F - 33.8 °F 58% 30.21 in 10.0 mi West 8.1 mph - N/A   Clear
11:55 AM 48.2 °F - 33.8 °F 58% 30.20 in 10.0 mi WNW 4.6 mph - N/A   Clear
12:15 PM 48.2 °F - 33.8 °F 58% 30.19 in 10.0 mi NW 5.8 mph - N/A   Clear
12:55 PM 50.0 °F - 33.8 °F 54% 30.17 in 10.0 mi WNW 6.9 mph - N/A   Clear
1:15 PM 50.0 °F - 33.8 °F 54% 30.17 in 9.0 mi West 6.9 mph - N/A   Clear
1:35 PM 50.0 °F - 32.0 °F 50% 30.16 in 8.0 mi WNW 9.2 mph - N/A   Clear
1:55 PM 48.2 °F - 32.0 °F 54% 30.16 in 10.0 mi West 6.9 mph - N/A   Clear
2:15 PM 50.0 °F - 32.0 °F 50% 30.15 in 10.0 mi West 4.6 mph - N/A   Clear
2:35 PM 50.0 °F - 32.0 °F 50% 30.14 in 10.0 mi Variable 4.6 mph - N/A   Clear
2:55 PM 50.0 °F - 32.0 °F 50% 30.13 in 10.0 mi Variable 4.6 mph - N/A   Clear
3:15 PM 50.0 °F - 32.0 °F 50% 30.13 in 10.0 mi Variable 3.5 mph - N/A   Clear
3:35 PM 50.0 °F - 32.0 °F 50% 30.13 in 10.0 mi Calm Calm - N/A   Unknown
3:55 PM 50.0 °F - 32.0 °F 50% 30.13 in 10.0 mi Calm Calm - N/A   Clear
4:15 PM 48.2 °F - 32.0 °F 54% 30.12 in 10.0 mi Calm Calm - N/A   Clear
4:35 PM 48.2 °F - 32.0 °F 54% 30.11 in 10.0 mi Calm Calm - N/A   Clear
4:55 PM 48.2 °F - 32.0 °F 54% 30.11 in 10.0 mi Calm Calm - N/A   Clear
5:15 PM 48.2 °F - 33.8 °F 58% 30.11 in 10.0 mi Calm Calm - N/A   Clear
5:35 PM 46.4 °F - 33.8 °F 62% 30.11 in 10.0 mi Calm Calm - N/A   Clear
5:55 PM 46.4 °F - 33.8 °F 62% 30.11 in 10.0 mi Calm Calm - N/A   Clear
6:15 PM 46.4 °F 45.2 °F 33.8 °F 62% 30.10 in 10.0 mi Variable 3.5 mph - N/A   Clear
6:35 PM 46.4 °F 45.2 °F 33.8 °F 62% 30.10 in 10.0 mi South 3.5 mph - N/A   Clear
6:55 PM 44.6 °F 43.1 °F 32.0 °F 61% 30.09 in 10.0 mi Variable 3.5 mph - N/A   Clear
7:15 PM 44.6 °F 42.2 °F 32.0 °F 61% 30.10 in 10.0 mi South 4.6 mph - N/A   Clear
7:35 PM 46.4 °F 43.5 °F 32.0 °F 57% 30.08 in 10.0 mi South 5.8 mph - N/A Rain Light Rain
7:55 PM 44.6 °F 42.2 °F 32.0 °F 61% 30.08 in 10.0 mi Variable 4.6 mph - N/A   Clear
8:15 PM 44.6 °F 41.4 °F 33.8 °F 66% 30.07 in 10.0 mi South 5.8 mph - N/A   Partly Cloudy
8:35 PM 44.6 °F 41.4 °F 33.8 °F 66% 30.06 in 10.0 mi Variable 5.8 mph - N/A   Partly Cloudy
8:55 PM 44.6 °F 41.4 °F 33.8 °F 66% 30.05 in 10.0 mi South 5.8 mph - N/A   Partly Cloudy
9:15 PM 44.6 °F 42.2 °F 33.8 °F 66% 30.03 in 10.0 mi Variable 4.6 mph - N/A   Clear
9:55 PM 44.6 °F 40.7 °F 33.8 °F 66% 30.01 in 10.0 mi South 6.9 mph - N/A   Partly Cloudy
10:15 PM 44.6 °F 41.4 °F 33.8 °F 66% 30.03 in 10.0 mi South 5.8 mph - N/A   Partly Cloudy
10:35 PM 46.4 °F 45.2 °F 33.8 °F 62% 30.02 in 10.0 mi Variable 3.5 mph 11.5 mph N/A   Partly Cloudy
11:15 PM 46.4 °F 41.9 °F 35.6 °F 66% 29.98 in 10.0 mi SSW 9.2 mph - N/A   Scattered Clouds
11:35 PM 46.4 °F 43.5 °F 35.6 °F 66% 29.99 in 10.0 mi Variable 5.8 mph 13.8 mph N/A   Mostly Cloudy